| time (UTC) | temp F | wind direction | speed MPH | gust MPH | rain 1hr in | rain 24hr in | rain mn in | humidity % | barometer mb |
| 20260504231329 | 76 | 204 | 3.0 | 3.0 | 0.00 | 0.00 | 0.00 | 45 | 1013.4 |
| 20260504230825 | 77 | 209 | 2.0 | 2.0 | 0.00 | 0.00 | 0.00 | 44 | 1013.4 |
| 20260504230323 | 77 | 176 | 3.0 | 3.0 | 0.00 | 0.00 | 0.00 | 42 | 1013.4 |
| 20260504225822 | 78 | 199 | 2.0 | 2.0 | 0.00 | 0.00 | 0.00 | 44 | 1013.5 |
| 20260504225318 | 77 | 189 | 2.0 | 2.0 | 0.00 | 0.00 | 0.00 | 44 | 1013.6 |
| 20260504224815 | 78 | 222 | 4.0 | 5.0 | 0.00 | 0.00 | 0.00 | 43 | 1013.6 |
| 20260504224312 | 78 | 179 | 3.0 | 3.0 | 0.00 | 0.00 | 0.00 | 42 | 1013.5 |
| 20260504223809 | 78 | 190 | 5.0 | 7.0 | 0.00 | 0.00 | 0.00 | 41 | 1013.6 |
| 20260504223304 | 78 | 218 | 6.0 | 8.0 | 0.00 | 0.00 | 0.00 | 42 | 1013.6 |
| 20260504222801 | 78 | 247 | 6.0 | 7.0 | 0.00 | 0.00 | 0.00 | 40 | 1013.7 |
| 20260504222258 | 78 | 267 | 4.0 | 6.0 | 0.00 | 0.00 | 0.00 | 39 | 1013.6 |
| 20260504221756 | 78 | 240 | 7.0 | 8.0 | 0.00 | 0.00 | 0.00 | 38 | 1013.8 |
| 20260504221253 | 79 | 238 | 3.0 | 5.0 | 0.00 | 0.00 | 0.00 | 42 | 1013.7 |
| 20260504220749 | 78 | 200 | 4.0 | 7.0 | 0.00 | 0.00 | 0.00 | 39 | 1014.1 |
| 20260504220246 | 79 | 204 | 3.0 | 5.0 | 0.00 | 0.00 | 0.00 | 42 | 1014.1 |
| 20260504215744 | 79 | 226 | 8.0 | 9.0 | 0.00 | 0.00 | 0.00 | 39 | 1013.8 |
| 20260504215240 | 78 | 251 | 7.0 | 8.0 | 0.00 | 0.00 | 0.00 | 39 | 1014.0 |
| 20260504214736 | 79 | 202 | 1.0 | 2.0 | 0.00 | 0.00 | 0.00 | 39 | 1013.8 |
| 20260504214233 | 79 | 235 | 4.0 | 5.0 | 0.00 | 0.00 | 0.00 | 36 | 1013.8 |
| 20260504213730 | 79 | 184 | 5.0 | 5.0 | 0.00 | 0.00 | 0.00 | 37 | 1014.1 |
| 20260504213226 | 79 | 205 | 5.0 | 6.0 | 0.00 | 0.00 | 0.00 | 40 | 1014.1 |
| 20260504212723 | 79 | 193 | 5.0 | 7.0 | 0.00 | 0.00 | 0.00 | 39 | 1013.8 |
| 20260504212220 | 79 | 198 | 3.0 | 5.0 | 0.00 | 0.00 | 0.00 | 37 | 1014.1 |
| 20260504211717 | 79 | 200 | 6.0 | 7.0 | 0.00 | 0.00 | 0.00 | 36 | 1014.1 |
| 20260504211213 | 79 | 223 | 5.0 | 6.0 | 0.00 | 0.00 | 0.00 | 40 | 1014.1 |
| 20260504210711 | 80 | 214 | 6.0 | 7.0 | 0.00 | 0.00 | 0.00 | 38 | 1014.1 |
| 20260504210207 | 80 | 204 | 3.0 | 6.0 | 0.00 | 0.00 | 0.00 | 40 | 1014.1 |
| 20260504205704 | 80 | 236 | 1.0 | 3.0 | 0.00 | 0.00 | 0.00 | 41 | 1014.1 |
| 20260504205202 | 79 | 230 | 7.0 | 8.0 | 0.00 | 0.00 | 0.00 | 38 | 1014.1 |
| 20260504204700 | 79 | 203 | 4.0 | 6.0 | 0.00 | 0.00 | 0.00 | 36 | 1014.1 |
| 20260504204159 | 79 | 238 | 7.0 | 8.0 | 0.00 | 0.00 | 0.00 | 37 | 1014.2 |
| 20260504203657 | 79 | 265 | 8.0 | 9.0 | 0.00 | 0.00 | 0.00 | 39 | 1014.1 |
| 20260504203155 | 79 | 204 | 4.0 | 5.0 | 0.00 | 0.00 | 0.00 | 40 | 1014.2 |
| 20260504202655 | 80 | 190 | 2.0 | 2.0 | 0.00 | 0.00 | 0.00 | 38 | 1014.1 |
| 20260504202152 | 80 | 207 | 2.0 | 2.0 | 0.00 | 0.00 | 0.00 | 39 | 1014.4 |
| 20260504201649 | 79 | 190 | 3.0 | 3.0 | 0.00 | 0.00 | 0.00 | 39 | 1014.2 |
| 20260504201146 | 78 | 204 | 5.0 | 6.0 | 0.00 | 0.00 | 0.00 | 40 | 1014.5 |
| 20260504200643 | 78 | 198 | 4.0 | 6.0 | 0.00 | 0.00 | 0.00 | 34 | 1014.6 |
| 20260504200140 | 80 | 204 | 5.0 | 7.0 | 0.00 | 0.00 | 0.00 | 41 | 1014.5 |
| 20260504195636 | 79 | 247 | 3.0 | 3.0 | 0.00 | 0.00 | 0.00 | 35 | 1014.7 |
| 20260504195132 | 79 | 203 | 4.0 | 5.0 | 0.00 | 0.00 | 0.00 | 35 | 1014.9 |
| 20260504194629 | 79 | 199 | 7.0 | 8.0 | 0.00 | 0.00 | 0.00 | 37 | 1014.8 |
| 20260504194125 | 79 | 188 | 5.0 | 6.0 | 0.00 | 0.00 | 0.00 | 40 | 1015.0 |
| 20260504193622 | 80 | 234 | 4.0 | 5.0 | 0.00 | 0.00 | 0.00 | 35 | 1015.0 |
| 20260504193120 | 79 | 183 | 2.0 | 2.0 | 0.00 | 0.00 | 0.00 | 41 | 1015.2 |
| 20260504192618 | 76 | 234 | 4.0 | 5.0 | 0.00 | 0.00 | 0.00 | 42 | 1015.1 |
| 20260504192116 | 76 | 224 | 3.0 | 3.0 | 0.00 | 0.00 | 0.00 | 43 | 1015.2 |
| 20260504191614 | 78 | 207 | 4.0 | 5.0 | 0.00 | 0.00 | 0.00 | 42 | 1015.1 |
| 20260504191110 | 78 | 227 | 2.0 | 2.0 | 0.00 | 0.00 | 0.00 | 41 | 1015.3 |
| 20260504190606 | 78 | 178 | 4.0 | 5.0 | 0.00 | 0.00 | 0.00 | 39 | 1015.3 |
| 20260504185559 | 78 | 261 | 3.0 | 3.0 | 0.00 | 0.00 | 0.00 | 38 | 1015.7 |
| 20260504185056 | 78 | 196 | 4.0 | 5.0 | 0.00 | 0.00 | 0.00 | 39 | 1015.6 |
| 20260504184551 | 78 | 193 | 6.0 | 7.0 | 0.00 | 0.00 | 0.00 | 42 | 1015.5 |
| 20260504184047 | 78 | 188 | 3.0 | 3.0 | 0.00 | 0.00 | 0.00 | 42 | 1015.6 |
| 20260504183544 | 78 | 192 | 4.0 | 5.0 | 0.00 | 0.00 | 0.00 | 39 | 1015.7 |
| 20260504183042 | 77 | 206 | 1.0 | 2.0 | 0.00 | 0.00 | 0.00 | 43 | 1016.1 |
| 20260504182539 | 77 | 202 | 2.0 | 2.0 | 0.00 | 0.00 | 0.00 | 43 | 1015.9 |
| 20260504182036 | 77 | 219 | 2.0 | 3.0 | 0.00 | 0.00 | 0.00 | 41 | 1016.0 |
| 20260504181533 | 77 | 202 | 5.0 | 5.0 | 0.00 | 0.00 | 0.00 | 48 | 1016.3 |
| 20260504181031 | 76 | 196 | 3.0 | 3.0 | 0.00 | 0.00 | 0.00 | 44 | 1016.1 |
| 20260504180530 | 77 | 212 | 5.0 | 7.0 | 0.00 | 0.00 | 0.00 | 48 | 1016.0 |
| 20260504180028 | 76 | 0 | 0.0 | 0.0 | 0.00 | 0.00 | 0.00 | 44 | 1016.2 |
| 20260504175525 | 76 | 306 | 4.0 | 5.0 | 0.00 | 0.00 | 0.00 | 44 | 1016.4 |
| 20260504175022 | 75 | 268 | 7.0 | 8.0 | 0.00 | 0.00 | 0.00 | 45 | 1016.6 |
| 20260504174520 | 75 | 187 | 2.0 | 3.0 | 0.00 | 0.00 | 0.00 | 48 | 1016.6 |
| 20260504174017 | 75 | 181 | 2.0 | 2.0 | 0.00 | 0.00 | 0.00 | 46 | 1016.6 |
| 20260504173513 | 75 | 271 | 4.0 | 6.0 | 0.00 | 0.00 | 0.00 | 44 | 1016.5 |
| 20260504173011 | 75 | 223 | 4.0 | 5.0 | 0.00 | 0.00 | 0.00 | 48 | 1016.9 |
| 20260504172507 | 75 | 187 | 4.0 | 5.0 | 0.00 | 0.00 | 0.00 | 45 | 1016.6 |
| 20260504172003 | 74 | 242 | 5.0 | 5.0 | 0.00 | 0.00 | 0.00 | 46 | 1016.6 |
| 20260504171500 | 73 | 258 | 4.0 | 5.0 | 0.00 | 0.00 | 0.00 | 47 | 1016.7 |
| 20260504170957 | 73 | 232 | 7.0 | 8.0 | 0.00 | 0.00 | 0.00 | 48 | 1016.8 |
| 20260504170453 | 73 | 258 | 5.0 | 6.0 | 0.00 | 0.00 | 0.00 | 48 | 1016.8 |
| 20260504160413 | 71 | 268 | 6.0 | 7.0 | 0.00 | 0.00 | 0.00 | 53 | 1017.9 |
| 20260504150837 | 69 | 214 | 0.0 | 0.0 | 0.00 | 0.00 | 0.00 | 54 | 1017.7 |
| 20260504150334 | 69 | 239 | 5.0 | 6.0 | 0.00 | 0.00 | 0.00 | 58 | 1017.7 |
| 20260504141304 | 65 | 200 | 3.0 | 3.0 | 0.00 | 0.00 | 0.00 | 64 | 1017.7 |
| 20260504140800 | 66 | 200 | 4.0 | 6.0 | 0.00 | 0.00 | 0.00 | 64 | 1017.9 |
| 20260504140256 | 65 | 184 | 3.0 | 3.0 | 0.00 | 0.00 | 0.00 | 66 | 1017.9 |
| 20260504130725 | 58 | 185 | 0.0 | 0.0 | 0.00 | 0.00 | 0.00 | 81 | 1018.1 |
| 20260504130220 | 57 | 197 | 0.0 | 0.0 | 0.00 | 0.00 | 0.00 | 84 | 1018.2 |
| 20260504120145 | 48 | 131 | 0.0 | 0.0 | 0.00 | 0.00 | 0.00 | 98 | 1018.0 |
| 20260504110612 | 45 | 116 | 0.0 | 0.0 | 0.00 | 0.00 | 0.00 | 98 | 1017.7 |
| 20260504110108 | 45 | 128 | 0.0 | 0.0 | 0.00 | 0.00 | 0.00 | 98 | 1017.5 |
| 20260504100534 | 46 | 97 | 0.0 | 0.0 | 0.00 | 0.00 | 0.00 | 97 | 1017.1 |
| 20260504081927 | 47 | 132 | 0.0 | 0.0 | 0.00 | 0.00 | 0.00 | 96 | 1017.2 |
| 20260504081424 | 47 | 132 | 0.0 | 0.0 | 0.00 | 0.00 | 0.00 | 96 | 1017.3 |
| 20260504080920 | 48 | 132 | 0.0 | 0.0 | 0.00 | 0.00 | 0.00 | 96 | 1017.2 |
| 20260504080417 | 48 | 131 | 0.0 | 0.0 | 0.00 | 0.00 | 0.00 | 96 | 1017.2 |
| 20260504070344 | 48 | 131 | 0.0 | 0.0 | 0.00 | 0.00 | 0.00 | 95 | 1017.5 |
| 20260504050732 | 49 | 99 | 0.0 | 0.0 | 0.00 | 0.00 | 0.00 | 91 | 1018.5 |
| 20260504050229 | 49 | 106 | 0.0 | 0.0 | 0.00 | 0.00 | 0.00 | 91 | 1018.4 |
| 20260504045727 | 49 | 160 | 0.0 | 0.0 | 0.00 | 0.00 | 0.00 | 91 | 1018.6 |
| 20260504045221 | 50 | 123 | 0.0 | 0.0 | 0.00 | 0.00 | 0.00 | 91 | 1018.4 |
| 20260504044719 | 50 | 154 | 0.0 | 0.0 | 0.00 | 0.00 | 0.00 | 90 | 1018.5 |
| 20260504044217 | 50 | 166 | 0.0 | 0.0 | 0.00 | 0.00 | 0.00 | 90 | 1018.5 |
| 20260504043714 | 50 | 139 | 0.0 | 0.0 | 0.00 | 0.00 | 0.00 | 90 | 1018.4 |
| 20260504043210 | 50 | 131 | 0.0 | 0.0 | 0.00 | 0.00 | 0.00 | 89 | 1018.6 |
| 20260504042708 | 51 | 167 | 0.0 | 0.0 | 0.00 | 0.00 | 0.00 | 88 | 1018.5 |
| 20260504042204 | 51 | 107 | 0.0 | 0.0 | 0.00 | 0.00 | 0.00 | 88 | 1018.6 |
| 20260504041700 | 51 | 117 | 0.0 | 0.0 | 0.00 | 0.00 | 0.00 | 88 | 1018.7 |
| 20260504041156 | 50 | 131 | 0.0 | 0.0 | 0.00 | 0.00 | 0.00 | 88 | 1018.7 |
| 20260504040653 | 51 | 116 | 0.0 | 0.0 | 0.00 | 0.00 | 0.00 | 88 | 1018.8 |
| 20260504040150 | 51 | 159 | 0.0 | 0.0 | 0.00 | 0.00 | 0.00 | 87 | 1018.8 |
| 20260504035647 | 51 | 131 | 0.0 | 0.0 | 0.00 | 0.00 | 0.00 | 86 | 1018.8 |
| 20260504035144 | 51 | 113 | 0.0 | 0.0 | 0.00 | 0.00 | 0.00 | 86 | 1019.2 |
| 20260504034641 | 51 | 159 | 0.0 | 0.0 | 0.00 | 0.00 | 0.00 | 85 | 1019.0 |
| 20260504034138 | 51 | 160 | 0.0 | 0.0 | 0.00 | 0.00 | 0.00 | 85 | 1019.2 |
| 20260504033636 | 51 | 159 | 0.0 | 0.0 | 0.00 | 0.00 | 0.00 | 85 | 1019.2 |
| 20260504033133 | 51 | 159 | 0.0 | 0.0 | 0.00 | 0.00 | 0.00 | 85 | 1019.0 |
| 20260504032630 | 52 | 160 | 0.0 | 0.0 | 0.00 | 0.00 | 0.00 | 85 | 1018.8 |
| 20260504032127 | 52 | 136 | 0.0 | 0.0 | 0.00 | 0.00 | 0.00 | 82 | 1018.7 |
| 20260504031624 | 52 | 129 | 0.0 | 0.0 | 0.00 | 0.00 | 0.00 | 82 | 1018.7 |
| 20260504031120 | 53 | 113 | 0.0 | 0.0 | 0.00 | 0.00 | 0.00 | 82 | 1018.8 |
| 20260504030617 | 53 | 113 | 0.0 | 0.0 | 0.00 | 0.00 | 0.00 | 81 | 1018.8 |
| 20260504030114 | 53 | 132 | 0.0 | 0.0 | 0.00 | 0.00 | 0.00 | 80 | 1018.8 |
| 20260504025610 | 53 | 126 | 0.0 | 0.0 | 0.00 | 0.00 | 0.00 | 80 | 1018.7 |
| 20260504025108 | 53 | 139 | 0.0 | 0.0 | 0.00 | 0.00 | 0.00 | 79 | 1018.6 |
| 20260504024605 | 54 | 135 | 0.0 | 0.0 | 0.00 | 0.00 | 0.00 | 79 | 1018.6 |
| 20260504024101 | 54 | 149 | 0.0 | 0.0 | 0.00 | 0.00 | 0.00 | 78 | 1018.5 |
| 20260504023557 | 55 | 136 | 0.0 | 0.0 | 0.00 | 0.00 | 0.00 | 77 | 1018.7 |
| 20260504023054 | 54 | 118 | 0.0 | 0.0 | 0.00 | 0.00 | 0.00 | 77 | 1018.5 |
| 20260504022550 | 54 | 147 | 0.0 | 0.0 | 0.00 | 0.00 | 0.00 | 77 | 1018.8 |
| 20260504022046 | 54 | 147 | 0.0 | 0.0 | 0.00 | 0.00 | 0.00 | 76 | 1018.6 |
| 20260504021544 | 55 | 148 | 0.0 | 0.0 | 0.00 | 0.00 | 0.00 | 75 | 1018.6 |
| 20260504021040 | 55 | 133 | 0.0 | 0.0 | 0.00 | 0.00 | 0.00 | 73 | 1018.5 |
| 20260504020537 | 55 | 128 | 0.0 | 0.0 | 0.00 | 0.00 | 0.00 | 73 | 1018.0 |
| 20260504020034 | 55 | 138 | 0.0 | 0.0 | 0.00 | 0.00 | 0.00 | 73 | 1018.2 |
| 20260504015530 | 55 | 138 | 0.0 | 0.0 | 0.00 | 0.00 | 0.00 | 73 | 1018.2 |
| 20260504015026 | 56 | 138 | 0.0 | 0.0 | 0.00 | 0.00 | 0.00 | 73 | 1018.2 |
| 20260504014523 | 56 | 138 | 0.0 | 0.0 | 0.00 | 0.00 | 0.00 | 73 | 1018.4 |
| 20260504014020 | 57 | 131 | 0.0 | 0.0 | 0.00 | 0.00 | 0.00 | 72 | 1018.1 |
| 20260504013518 | 57 | 140 | 0.0 | 0.0 | 0.00 | 0.00 | 0.00 | 70 | 1018.0 |
| 20260504013015 | 58 | 81 | 0.0 | 0.0 | 0.00 | 0.00 | 0.00 | 68 | 1017.8 |
| 20260504012512 | 58 | 63 | 0.0 | 0.0 | 0.00 | 0.00 | 0.00 | 68 | 1017.9 |
| 20260504012010 | 59 | 234 | 0.0 | 0.0 | 0.00 | 0.00 | 0.00 | 68 | 1017.8 |
| 20260504011506 | 59 | 234 | 0.0 | 0.0 | 0.00 | 0.00 | 0.00 | 66 | 1017.8 |
| 20260504011002 | 60 | 233 | 0.0 | 0.0 | 0.00 | 0.00 | 0.00 | 63 | 1017.9 |
| 20260504010458 | 60 | 233 | 0.0 | 0.0 | 0.00 | 0.00 | 0.00 | 63 | 1017.7 |
| 20260504005954 | 60 | 233 | 0.0 | 0.0 | 0.00 | 0.00 | 0.00 | 63 | 1018.1 |
| 20260504005451 | 60 | 233 | 0.0 | 0.0 | 0.00 | 0.00 | 0.00 | 62 | 1017.7 |
| 20260504004949 | 61 | 233 | 0.0 | 0.0 | 0.00 | 0.00 | 0.00 | 61 | 1017.8 |
| 20260504004446 | 61 | 233 | 0.0 | 0.0 | 0.00 | 0.00 | 0.00 | 60 | 1017.6 |
| 20260504003943 | 62 | 233 | 0.0 | 0.0 | 0.00 | 0.00 | 0.00 | 58 | 1017.7 |
| 20260504003439 | 63 | 233 | 0.0 | 0.0 | 0.00 | 0.00 | 0.00 | 56 | 1017.5 |
| 20260504002936 | 63 | 233 | 0.0 | 0.0 | 0.00 | 0.00 | 0.00 | 54 | 1017.6 |
| 20260504002433 | 64 | 233 | 0.0 | 0.0 | 0.00 | 0.00 | 0.00 | 55 | 1017.8 |
| 20260504001930 | 65 | 233 | 0.0 | 0.0 | 0.00 | 0.00 | 0.00 | 54 | 1017.6 |
| 20260504001428 | 66 | 233 | 0.0 | 0.0 | 0.00 | 0.00 | 0.00 | 49 | 1017.5 |
| 20260504000924 | 67 | 245 | 0.0 | 0.0 | 0.00 | 0.00 | 0.00 | 47 | 1017.5 |
| 20260504000423 | 68 | 269 | 0.0 | 0.0 | 0.00 | 0.00 | 0.00 | 46 | 1017.5 |
| 20260503235919 | 69 | 259 | 0.0 | 0.0 | 0.00 | 0.00 | 0.00 | 45 | 1017.5 |
| 20260503235416 | 70 | 231 | 2.0 | 2.0 | 0.00 | 0.00 | 0.00 | 44 | 1017.5 |
| 20260503234914 | 71 | 274 | 0.0 | 0.0 | 0.00 | 0.00 | 0.00 | 43 | 1017.5 |
| 20260503234411 | 70 | 265 | 0.0 | 0.0 | 0.00 | 0.00 | 0.00 | 45 | 1017.3 |
| 20260503233909 | 72 | 318 | 0.0 | 0.0 | 0.00 | 0.00 | 0.00 | 41 | 1017.3 |
| 20260503233405 | 71 | 262 | 0.0 | 0.0 | 0.00 | 0.00 | 0.00 | 40 | 1017.4 |
| 20260503232901 | 73 | 251 | 0.0 | 0.0 | 0.00 | 0.00 | 0.00 | 43 | 1017.6 |
| 20260503232359 | 73 | 193 | 0.0 | 0.0 | 0.00 | 0.00 | 0.00 | 41 | 1017.5 |
| 20260503231856 | 71 | 76 | 0.0 | 0.0 | 0.00 | 0.00 | 0.00 | 42 | 1017.5 |